This demonstration page uses our WeatherBlox Daily Observations layout. Learn more.

Left ArrowRight Arrow

Hourly Observations for September 26, 2017

Temp ( °F °C ) Dew Point ( °F °C ) Humidity (%) Winds ( mph kmh ) Pressure ( in mb ) Visibility ( mi km ) Precip ( " mm )
12:15 am 00:15 Clear 73 23 72 22 94 94 E 3 6 30.03 1017 10 16 0.00 0.00
12:35 am 00:35 Clear 72 22 70 21 94 94 Calm 30.03 1017 10 16 0.00 0.00
12:55 am 00:55 Clear 72 22 70 21 94 94 Calm 30.03 1017 10 16 0.00 0.00
1:15 am 01:15 Clear 72 22 70 21 94 94 ENE 3 6 30.03 1017 10 16 0.00 0.00
1:35 am 01:35 Clear 72 22 70 21 94 94 Calm 30.03 1017 10 16 0.00 0.00
1:55 am 01:55 Clear 72 22 70 21 94 94 Calm 30.03 1017 10 16 0.00 0.00
2:15 am 02:15 Clear 70 21 70 21 100 100 N 3 6 30.03 1017 10 16 0.00 0.00
2:35 am 02:35 Clear 72 22 70 21 94 94 Calm 30.03 1017 10 16 0.00 0.00
2:55 am 02:55 Clear 72 22 68 20 88 88 NNE 3 6 30.03 1017 10 16 0.00 0.00
3:15 am 03:15 Clear 68 20 68 20 100 100 Calm 30.03 1017 10 16 0.00 0.00
3:35 am 03:35 Clear 68 20 68 20 100 100 Calm 30.03 1017 10 16 0.00 0.00
3:55 am 03:55 Clear 68 20 68 20 100 100 N 3 6 30.03 1017 10 16 0.00 0.00
4:15 am 04:15 Clear 68 20 68 20 100 100 N 5 7 30.00 1016 10 16 0.00 0.00
4:35 am 04:35 Clear 68 20 68 20 100 100 N 5 7 30.03 1017 10 16 0.00 0.00
4:55 am 04:55 Clear 68 20 66 19 94 94 N 3 6 30.00 1016 10 16 0.00 0.00
5:15 am 05:15 Clear 68 20 68 20 100 100 N 3 6 30.00 1016 10 16 0.00 0.00
5:35 am 05:35 Clear 66 19 66 19 100 100 N 5 7 30.00 1016 10 16 0.00 0.00
5:55 am 05:55 Clear 66 19 66 19 100 100 N 5 7 30.00 1016 10 16 0.00 0.00
6:15 am 06:15 Clear 68 20 68 20 100 100 NNE 7 11 30.03 1017 7 11 0.00 0.00
6:35 am 06:35 Clear 68 20 68 20 100 100 NNE 6 9 30.03 1017 7 11 0.00 0.00
6:55 am 06:55 Clear 64 18 64 18 100 100 NNW 3 6 30.03 1017 7 11 0.00 0.00
7:15 am 07:15 Sunny 64 18 64 18 100 100 N 3 6 30.03 1017 7 11 0.00 0.00
7:35 am 07:35 Sunny with Mist and Fog 66 19 66 19 100 100 undefined N/A 30.03 1017 5 8 0.00 0.00
7:55 am 07:55 Sunny with Mist and Fog 68 20 68 20 100 100 Calm 30.03 1017 5 8 0.00 0.00
8:15 am 08:15 Sunny 70 21 68 20 94 94 NE 3 6 30.03 1017 7 11 0.00 0.00
8:35 am 08:35 Sunny 72 22 70 21 94 94 NE 3 6 30.03 1017 10 16 0.00 0.00
8:55 am 08:55 Sunny 72 22 70 21 94 94 NNE 9 15 30.06 1018 10 16 0.00 0.00
9:15 am 09:15 Sunny 73 23 70 21 89 89 NE 9 15 30.06 1018 10 16 0.00 0.00
9:35 am 09:35 Sunny 73 23 70 21 89 89 NNE 7 11 30.06 1018 10 16 0.00 0.00
9:55 am 09:55 Sunny 77 25 70 21 79 79 NNE 8 13 30.06 1018 10 16 0.00 0.00
10:15 am 10:15 Sunny 77 25 70 21 79 79 NNE 8 13 30.06 1018 10 16 0.00 0.00
10:35 am 10:35 Sunny 77 25 70 21 79 79 NNE 8 13 30.06 1018 10 16 0.00 0.00
10:55 am 10:55 Sunny 77 25 70 21 79 79 NNE 8 13 30.03 1017 10 16 0.00 0.00
11:15 am 11:15 Partly Cloudy 79 26 70 21 74 74 ENE 7 11 30.03 1017 10 16 0.00 0.00
11:35 am 11:35 Partly Cloudy 81 27 70 21 70 70 NE 7 11 30.03 1017 10 16 0.00 0.00
11:55 am 11:55 Sunny 82 28 70 21 66 66 NNE 6 9 30.03 1017 10 16 0.00 0.00
12:15 pm 12:15 Sunny 79 26 70 21 74 74 NE 7 11 30.03 1017 10 16 0.00 0.00
12:35 pm 12:35 Sunny 81 27 70 21 70 70 NE 7 11 30.03 1017 10 16 0.00 0.00
12:55 pm 12:55 Sunny 81 27 70 21 70 70 NE 6 9 30.03 1017 10 16 0.00 0.00
1:15 pm 13:15 Sunny 82 28 70 21 66 66 NE 5 7 30.03 1017 10 16 0.00 0.00
1:35 pm 13:35 Partly Cloudy 82 28 70 21 66 66 ENE 7 11 30.00 1016 10 16 0.00 0.00
1:55 pm 13:55 Partly Cloudy 84 29 70 21 62 62 Calm 30.00 1016 10 16 0.00 0.00
2:15 pm 14:15 Partly Cloudy 84 29 70 21 62 62 NNE 9 15 30.00 1016 10 16 0.00 0.00
2:35 pm 14:35 Partly Cloudy 86 30 70 21 59 59 ENE 8 13 29.94 1014 10 16 0.00 0.00
2:55 pm 14:55 Partly Cloudy 86 30 68 20 55 55 ENE 7 11 29.94 1014 10 16 0.00 0.00
3:15 pm 15:15 Sunny 86 30 68 20 55 55 E 9 15 29.94 1014 10 16 0.00 0.00
3:35 pm 15:35 Sunny 86 30 68 20 55 55 E 9 15 29.94 1014 10 16 0.00 0.00
3:55 pm 15:55 Sunny 86 30 68 20 55 55 ENE 8 13 29.94 1014 10 16 0.00 0.00
4:15 pm 16:15 Sunny 86 30 68 20 55 55 NE 7 11 29.94 1014 10 16 0.00 0.00
4:35 pm 16:35 Sunny 86 30 68 20 55 55 E 8 13 29.91 1013 10 16 0.00 0.00
4:55 pm 16:55 Sunny 86 30 68 20 55 55 ENE 5 7 29.91 1013 10 16 0.00 0.00
5:15 pm 17:15 Sunny 86 30 68 20 55 55 ENE 6 9 29.91 1013 10 16 0.00 0.00
5:35 pm 17:35 Sunny 86 30 68 20 55 55 NE 5 7 29.94 1014 10 16 0.00 0.00
5:55 pm 17:55 Sunny 84 29 66 19 55 55 ENE 8 13 29.97 1015 10 16 0.00 0.00
6:15 pm 18:15 Sunny 82 28 68 20 62 62 ENE 7 11 29.97 1015 10 16 0.00 0.00
6:35 pm 18:35 Sunny 82 28 68 20 62 62 ENE 5 7 29.97 1015 10 16 0.00 0.00
6:55 pm 18:55 Sunny 81 27 68 20 66 66 ENE 3 6 29.97 1015 10 16 0.00 0.00
7:15 pm 19:15 Clear 81 27 68 20 66 66 Calm 29.97 1015 10 16 0.00 0.00
7:35 pm 19:35 Clear 81 27 68 20 66 66 NNE 3 6 29.97 1015 10 16 0.00 0.00
7:55 pm 19:55 Clear 79 26 68 20 70 70 NNE 3 6 29.97 1015 10 16 0.00 0.00
8:15 pm 20:15 Clear 79 26 68 20 70 70 NNE 3 6 29.97 1015 10 16 0.00 0.00
8:35 pm 20:35 Clear 79 26 68 20 70 70 Calm 29.97 1015 10 16 0.00 0.00
8:55 pm 20:55 Clear 77 25 68 20 74 74 Calm 29.97 1015 10 16 0.00 0.00
9:15 pm 21:15 Clear 75 24 68 20 78 78 Calm 29.97 1015 10 16 0.00 0.00
9:35 pm 21:35 Clear 73 23 68 20 83 83 Calm 29.97 1015 10 16 0.00 0.00
9:55 pm 21:55 Clear 73 23 70 21 89 89 Calm 29.97 1015 10 16 0.00 0.00
10:15 pm 22:15 Clear 72 22 70 21 94 94 Calm 29.97 1015 10 16 0.00 0.00
10:35 pm 22:35 Clear 72 22 70 21 94 94 Calm 29.97 1015 10 16 0.00 0.00
10:55 pm 22:55 Clear 72 22 70 21 94 94 Calm 29.97 1015 10 16 0.00 0.00
11:15 pm 23:15 Clear 70 21 68 20 94 94 Calm 29.97 1015 10 16 0.00 0.00
11:35 pm 23:35 Clear 70 21 68 20 94 94 Calm 29.97 1015 10 16 0.00 0.00
11:55 pm 23:55 Clear 70 21 68 20 94 94 Calm 29.97 1015 10 16 0.00 0.00

Powered by AerisWeather